Location: Grandview
(34.8900°N, 117.1058°W)
Time: 12:43:59
(UTC-08:00)

OTV 5 (USA 277) - Pass Details

Date: 15 October 2017
Orbit: 404 x 417 km, 43.0° (Epoch: 07 September)

Event Time Altitude Azimuth Distance (km) Brightness Sun altitude
Rises 18:48:26 0° 283° (WNW) 2,349 ? -8.0°
Reaches altitude 10° 18:50:52 10° 300° (WNW) 1,488 ? -8.5°
Maximum altitude 18:53:33 21° 352° (N) 980 ? -9.1°
Drops below altitude 10° 18:56:13 10° 45° (NE) 1,489 ? -9.6°
Enters shadow 18:56:30 - 48° (NE) 1,582 ? -9.7°
